User: anonymous   Login
Location: Caltech
(34.1382°N, 118.1253°W)
Time: 10:39:16
(UTC-07:00)
Language:

RESURS DK-1 - Orbit

View from above orbital plane
View from above orbital plane
View from above satellite
View from above satellite

Ground track
Ground track

The orbit data is extracted from the following two-line orbital elements,

1 29228U 06021A   17085.86850279 +.00000243 +00000-0 +25805-4 0  9991
2 29228 069.9352 307.5097 0002025 138.8883 221.2430 15.02114714595748
Epoch (UTC): 26 March 2017 20:50:38
Eccentricity: 0.0002025
inclination: 69.9352°
perigee height: 559 km
apogee height: 562 km
right ascension of ascending node: 307.5097°
argument of perigee: 138.8883°
revolutions per day: 15.02114714
mean anomaly at epoch: 221.2430°
orbit number at epoch: 59574

The dashed part of the orbit path shows where the satellite is in the earth's shadow,  

DLR